MON32V EGCC-LGIR

Flight info

Callsign MON32V
Flight time N/A
Altitude 23000
Route LISTO L612 HON/N0457F350 L15 MOTOX DCT RUCAC DCT LESDO DCT ETINO DCT BEGAR DCT TRA DCT GAMSA N871 MADEB M738 TIRUL DCT DIRAB DCT MONFA DCT SPL DCT KOFER DCT UNDER DCT PINDO DCT LUSES DCT ATV UL995 KEA UL607 GIVIS T514 XAVIS
Aircraft A306/H-SDE3FGHIRWY/LB1

Departure

Time N/A
Airport Manchester Airport (EGCC)

Arrival

Time 2026-04-30 12:01
Airport Heraklion International Nikos Kazantzakis Airport (LGIR)
Time Latitude Longitude Altitude Speed Heading
2026-04-30 11:36 36.02385 25.44484 31356 ft 451 kts 167°
2026-04-30 11:36 35.99407 25.45689 30762 ft 448 kts 167°
2026-04-30 11:36 35.96455 25.46879 30193 ft 445 kts 167°
2026-04-30 11:37 35.93515 25.48062 29573 ft 443 kts 167°
2026-04-30 11:37 35.90593 25.49236 29014 ft 438 kts 167°
2026-04-30 11:37 35.87718 25.50391 28487 ft 434 kts 166°
2026-04-30 11:37 35.84864 25.51536 27964 ft 429 kts 166°
2026-04-30 11:38 35.82037 25.52668 27447 ft 425 kts 166°
2026-04-30 11:38 35.79227 25.53793 26954 ft 422 kts 166°
2026-04-30 11:38 35.76443 25.54907 26478 ft 418 kts 166°
2026-04-30 11:38 35.73723 25.55994 26025 ft 414 kts 166°
2026-04-30 11:39 35.70996 25.57095 25565 ft 412 kts 164°
2026-04-30 11:39 35.68442 25.58703 25096 ft 415 kts 148°
2026-04-30 11:39 35.66119 25.60797 24667 ft 411 kts 150°
2026-04-30 11:39 35.63535 25.62147 24205 ft 400 kts 171°
2026-04-30 11:40 35.60810 25.62300 23778 ft 389 kts 192°
2026-04-30 11:40 35.58284 25.61283 23259 ft 378 kts 212°
2026-04-30 11:40 35.56295 25.59256 22702 ft 369 kts 234°
2026-04-30 11:40 35.55016 25.56563 22193 ft 363 kts 246°
2026-04-30 11:41 35.53878 25.53810 21682 ft 361 kts 243°
2026-04-30 11:41 35.52578 25.51177 21189 ft 360 kts 239°
2026-04-30 11:41 35.51149 25.48658 20702 ft 359 kts 236°
2026-04-30 11:41 35.49668 25.46254 20218 ft 357 kts 235°
2026-04-30 11:42 35.48131 25.43870 19756 ft 355 kts 234°
2026-04-30 11:42 35.46582 25.41531 19299 ft 353 kts 233°
2026-04-30 11:42 35.45033 25.39206 18841 ft 350 kts 235°
2026-04-30 11:42 35.43782 25.36689 18373 ft 344 kts 249°
2026-04-30 11:43 35.43216 25.33875 17852 ft 338 kts 267°
2026-04-30 11:43 35.43416 25.31034 17350 ft 334 kts 284°
2026-04-30 11:43 35.44331 25.28444 16840 ft 332 kts 302°
2026-04-30 11:43 35.45856 25.26344 16364 ft 331 kts 319°
2026-04-30 11:44 35.47850 25.24927 15884 ft 333 kts 336°
2026-04-30 11:44 35.50116 25.24347 15401 ft 336 kts 354°
2026-04-30 11:44 35.52438 25.24680 14930 ft 340 kts 13°
2026-04-30 11:44 35.54557 25.25905 14470 ft 344 kts 31°
2026-04-30 11:45 35.56324 25.27892 14012 ft 346 kts 45°
2026-04-30 11:45 35.57896 25.30115 13526 ft 344 kts 47°
2026-04-30 11:45 35.59440 25.32353 13027 ft 341 kts 47°
2026-04-30 11:45 35.60929 25.34613 12533 ft 340 kts 52°
2026-04-30 11:46 35.62005 25.37199 12042 ft 342 kts 70°
2026-04-30 11:46 35.62364 25.40070 11577 ft 341 kts 90°
2026-04-30 11:46 35.61947 25.42918 11128 ft 338 kts 110°
2026-04-30 11:46 35.60822 25.45424 10675 ft 334 kts 129°
2026-04-30 11:47 35.59131 25.47341 10222 ft 329 kts 148°
2026-04-30 11:47 35.57078 25.48497 9744 ft 323 kts 166°
2026-04-30 11:47 35.54876 25.48822 9269 ft 317 kts 184°
2026-04-30 11:47 35.52737 25.48335 8770 ft 311 kts 201°
2026-04-30 11:48 35.50868 25.47141 8299 ft 305 kts 217°
2026-04-30 11:48 35.49330 25.45384 7818 ft 302 kts 229°
2026-04-30 11:48 35.47945 25.43418 7320 ft 300 kts 231°
2026-04-30 11:48 35.46616 25.41488 6836 ft 299 kts 230°
2026-04-30 11:49 35.45273 25.39548 6352 ft 297 kts 231°
2026-04-30 11:49 35.44093 25.37494 5868 ft 295 kts 241°
2026-04-30 11:49 35.43363 25.35162 5384 ft 293 kts 257°
2026-04-30 11:49 35.43193 25.32682 4888 ft 292 kts 272°
2026-04-30 11:50 35.43595 25.30251 4362 ft 292 kts 289°
2026-04-30 11:50 35.44534 25.28050 3884 ft 292 kts 305°
2026-04-30 11:50 35.45927 25.26257 3413 ft 291 kts 321°
2026-04-30 11:50 35.47659 25.25007 2937 ft 289 kts 337°
2026-04-30 11:51 35.49600 25.24390 2469 ft 288 kts 353°
2026-04-30 11:51 35.51587 25.24455 2150 ft 284 kts
2026-04-30 11:51 35.53509 25.25000 2076 ft 284 kts 13°
2026-04-30 11:51 35.55427 25.25576 2065 ft 284 kts 13°
2026-04-30 11:52 35.57348 25.26152 2060 ft 284 kts 13°
2026-04-30 11:52 35.59185 25.26954 2045 ft 273 kts 33°
2026-04-30 11:52 35.60346 25.28653 2052 ft 255 kts 68°
2026-04-30 11:52 35.60477 25.30759 2059 ft 249 kts 105°
2026-04-30 11:53 35.59676 25.32594 2070 ft 249 kts 129°
2026-04-30 11:53 35.58423 25.34070 2059 ft 251 kts 142°
2026-04-30 11:53 35.56944 25.35210 2059 ft 251 kts 154°
2026-04-30 11:53 35.55301 25.35907 2060 ft 251 kts 171°
2026-04-30 11:54 35.53562 25.36046 2062 ft 251 kts 179°
2026-04-30 11:54 35.51822 25.36051 2067 ft 251 kts 180°
2026-04-30 11:54 35.50074 25.36034 2067 ft 251 kts 180°
2026-04-30 11:54 35.48324 25.36013 2067 ft 251 kts 180°
2026-04-30 11:55 35.46597 25.35991 2068 ft 251 kts 180°
2026-04-30 11:55 35.44848 25.35970 2070 ft 251 kts 180°
2026-04-30 11:55 35.43104 25.35948 2072 ft 251 kts 180°
2026-04-30 11:55 35.41357 25.35927 2072 ft 251 kts 180°
2026-04-30 11:56 35.39612 25.35905 2067 ft 246 kts 180°
2026-04-30 11:56 35.37960 25.35885 2075 ft 229 kts 180°
2026-04-30 11:56 35.36432 25.35865 2074 ft 211 kts 180°
2026-04-30 11:56 35.35021 25.35823 2055 ft 197 kts 186°
2026-04-30 11:57 35.33747 25.35301 2006 ft 193 kts 215°
2026-04-30 11:57 35.33152 25.34503 2007 ft 193 kts 242°
2026-04-30 11:57 35.32891 25.32922 2002 ft 189 kts 271°
2026-04-30 11:57 35.32978 25.31377 2014 ft 173 kts 276°
2026-04-30 11:58 35.33094 25.30002 2011 ft 152 kts 276°
2026-04-30 11:58 35.33195 25.28795 2037 ft 137 kts 275°
2026-04-30 11:58 35.33299 25.27591 1692 ft 146 kts 276°
2026-04-30 11:58 35.33402 25.26355 1337 ft 143 kts 277°
2026-04-30 11:59 35.33490 25.25174 1089 ft 136 kts 276°
2026-04-30 11:59 35.33560 25.23985 1013 ft 142 kts 275°
2026-04-30 11:59 35.33636 25.22785 782 ft 140 kts 276°
2026-04-30 11:59 35.33726 25.21607 587 ft 138 kts 276°
2026-04-30 12:00 35.33808 25.20432 405 ft 139 kts 275°
2026-04-30 12:00 35.33888 25.19247 179 ft 140 kts 276°
2026-04-30 12:00 35.33970 25.18140 98 ft 112 kts 275°
2026-04-30 12:00 35.34017 25.17398 94 ft 64 kts 274°
2026-04-30 12:01 35.34050 25.16973 94 ft 32 kts 275°
2026-04-30 12:01 35.34067 25.16717 92 ft 18 kts 273°
2026-04-30 12:01 35.34014 25.16682 96 ft 9 kts 142°
2026-04-30 12:01 35.33972 25.16741 94 ft 7 kts 122°
2026-04-30 12:02 35.33959 25.16798 94 ft 7 kts 96°
2026-04-30 12:02 35.33956 25.16852 96 ft 6 kts 94°
2026-04-30 12:02 35.33948 25.16891 94 ft 3 kts 121°
2026-04-30 12:02 35.33931 25.16906 93 ft 3 kts 149°
2026-04-30 12:03 35.33911 25.16921 94 ft 4 kts 147°
2026-04-30 12:03 35.33889 25.16939 94 ft 0 kts 147°
2026-04-30 12:04 35.33889 25.17077 91 ft 0 kts 153°
2026-04-30 12:23 35.33889 25.17076 92 ft 0 kts 153°